Plattsburgh, NY

7:15 AM EST on January 24, 2018 (GMT -0500)
Plattsburgh International

Weather History for KPBG - December, 2012

Change the Weather History Date:

Tuesday, December 4, 2012

  Actual Average Record
Temperature  
Mean Temperature 41 °F 29 °F  
Max Temperature 54 °F 37 °F 63 °F (1982)
Min Temperature 28 °F 21 °F 2 °F (1976)
Degree Days  
Heating Degree Days 24 36  
Month to date heating degree days 108 141  
Since 1 July heating degree days 1671 1775  
Cooling Degree Days 0 0  
Month to date cooling degree days 0  
Year to date cooling degree days 346  
Moisture  
Dew Point 41 °F    
Average Humidity 89    
Maximum Humidity 100    
Minimum Humidity 77    
Precipitation  
Precipitation 0.19 in - 1.36 in (1950)
Month to date precipitation 0.36  
Year to date precipitation 24.94  
Sea Level Pressure  
Sea Level Pressure 30.01 in    
Wind  
Wind Speed 5 mph (SSE)    
Max Wind Speed 17 mph    
Max Gust Speed 28 mph    
Visibility 8 miles    
Events Rain    
T = Trace of Precipitation, MM = Missing Value Source: NWS Daily Summary

Daily Weather History Graph

Daily Weather History Graph

Search for Another Location

Airport or City:

Trip Planner

Search our weather history database for the weather conditions in past years. The results will help you decide how hot, cold, wet, or windy it might be!

Date:

Astronomy

Dec. 04, 2012 Rise Set
Actual Time 7:14 AM EST 4:13 PM EST
Civil Twilight 6:41 AM EST 4:47 PM EST
Nautical Twilight 6:04 AM EST 5:23 PM EST
Astronomical Twilight 5:29 AM EST 5:58 PM EST
Moon 10:08 PM EST (12/4) 10:58 AM EST (12/4)
Length of Visible Light 10h 05m
Length of Day
8h 59m
Waning Gibbous, 69% of the Moon is Illuminated
Dec 4
Waning Gibbous
Dec 6
Last Quarter
Dec 13
New
Dec 20
First Quarter
Dec 28
Full

Hourly Weather History & Observations

Time (EST) Temp. Windchill Dew Point Humidity Pressure Visibility Wind Dir Wind Speed Gust Speed Precip Events Conditions
12:29 AM 35.6 °F - 33.8 °F 93% 30.20 in 10.0 mi Calm Calm - N/A   Scattered Clouds
12:51 AM 35.6 °F - 33.8 °F 93% 30.21 in 10.0 mi Calm Calm - N/A   Mostly Cloudy
1:00 AM 33.8 °F - 32.0 °F 93% 30.21 in 10.0 mi Calm Calm - N/A   Scattered Clouds
1:53 AM 32.0 °F - 30.9 °F 96% 30.22 in 7.0 mi Calm Calm - N/A   Clear
2:53 AM 28.9 °F - 28.9 °F 100% 30.18 in 6.0 mi Calm Calm - N/A   Clear
3:53 AM 30.0 °F - 28.0 °F 92% 30.16 in 6.0 mi Calm Calm - N/A   Clear
4:53 AM 28.9 °F - 28.0 °F 96% 30.14 in 6.0 mi Calm Calm - N/A   Clear
5:53 AM 28.0 °F 24.2 °F 27.0 °F 96% 30.12 in 9.0 mi South 3.5 mph - N/A   Clear
6:53 AM 30.0 °F - 28.9 °F 96% 30.12 in 10.0 mi Calm Calm - N/A   Scattered Clouds
7:53 AM 35.1 °F 31.0 °F 34.0 °F 96% 30.11 in 10.0 mi South 4.6 mph - N/A   Overcast
8:53 AM 39.9 °F 35.8 °F 37.9 °F 93% 30.11 in 10.0 mi South 5.8 mph - 0.00 in   Overcast
9:53 AM 45.0 °F 42.6 °F 41.0 °F 86% 30.09 in 10.0 mi SSE 4.6 mph - N/A   Clear
10:53 AM 48.0 °F - 43.0 °F 83% 30.06 in 10.0 mi South 4.6 mph - N/A   Clear
11:53 AM 50.0 °F - 44.1 °F 80% 30.02 in 10.0 mi SSE 10.4 mph - N/A   Clear
12:53 PM 51.1 °F - 44.1 °F 77% 29.98 in 10.0 mi SSE 13.8 mph - N/A   Clear
1:53 PM 52.0 °F - 45.0 °F 77% 29.96 in 10.0 mi SE 8.1 mph - N/A   Clear
2:53 PM 52.0 °F - 46.0 °F 80% 29.94 in 10.0 mi SSE 11.5 mph - N/A   Clear
3:53 PM 52.0 °F - 46.0 °F 80% 29.93 in 10.0 mi South 9.2 mph 20.7 mph N/A   Clear
4:53 PM 51.1 °F - 46.9 °F 86% 29.91 in 10.0 mi SSE 3.5 mph - N/A   Clear
5:53 PM 53.1 °F - 46.9 °F 80% 29.88 in 10.0 mi South 10.4 mph - N/A   Clear
6:53 PM 53.1 °F - 48.0 °F 83% 29.86 in 10.0 mi South 6.9 mph - N/A   Clear
7:53 PM 53.1 °F - 48.0 °F 83% 29.84 in 10.0 mi South 8.1 mph - N/A   Scattered Clouds
8:53 PM 53.1 °F - 48.0 °F 83% 29.83 in 10.0 mi SSE 4.6 mph - N/A   Overcast
9:53 PM 54.0 °F - 48.9 °F 83% 29.82 in 10.0 mi South 4.6 mph - 0.00 in   Overcast
10:45 PM 50.0 °F - 48.2 °F 94% 29.84 in 2.5 mi North 11.5 mph - 0.06 in Rain Heavy Rain
10:53 PM 50.0 °F - 48.9 °F 96% 29.85 in 3.0 mi North 10.4 mph - 0.08 in Rain Rain
11:09 PM 51.8 °F - 48.2 °F 88% 29.85 in 4.0 mi North 9.2 mph - 0.01 in Rain Light Rain
11:53 PM 50.0 °F - 48.0 °F 93% 29.86 in 3.0 mi Calm Calm - 0.10 in Rain Rain
11:55 PM 48.2 °F - 48.2 °F 100% 29.85 in 1.8 mi Calm Calm - 0.00 in Rain Rain